Regional Weather Roundup
Issued by NWS

Home | Current Version | Previous Version | Graphics & Text | Print | Product List | Glossary On
Versions: 1 2 3 4 5 6 7 8 9 10 11 12 13 14 15 16 17 18 19 20 21 22 23 24 25 26 27 28 29 30 31 32 33 34 35 36 37 38 39 40 41 42 43 44 45 46 47 48 49 50
000
ASUS45 KBOU 011607
RWRCO

WEATHER ROUNDUP FOR COLORADO
NATIONAL WEATHER SERVICE DENVER/BOULDER CO
900 AM MST SUN MAR 01 2015

NOTE: "FAIR" INDICATES FEW OR NO CLOUDS BELOW 12000 FEET WITH NO
SIGNIFICANT WEATHER AND/OR OBSTRUCTIONS TO VISIBILITY.

COZ001>005-013-030-031-011700-
...NORTHWEST COLORADO...

CITY           SKY/WX    TMP DP  RH WIND       PRES   REMARKS
CRAIG          CLOUDY    21  17  84 CALM      30.14R FOG
HAYDEN         CLOUDY    19  16  86 CALM      30.12R
MEEKER         LGT SNOW  24  21  88 SW3       30.10R VSB 3/4
MOUNT WERNER   NOT AVBL
STEAMBOAT SPGS CLOUDY    21  18  88 CALM      30.11R
WALDEN         SUNNY      5   1  85 CALM      30.06R
$$

COZ006>008-011-011700-
...WEST CENTRAL VALLEYS...

CITY           SKY/WX    TMP DP  RH WIND       PRES   REMARKS
GRAND JUNCTION CLOUDY    35  31  85 SE8       30.08R WCI  29
MONTROSE       CLOUDY    34  28  79 E5        30.10R WCI  30
EAGLE          CLOUDY    30  27  86 CALM      30.10R
RIFLE          CLOUDY    35  28  75 CALM      30.09R
DELTA          CLOUDY    36  32  86 E5        30.11R
NUCLA          CLOUDY    34  32  93 E3        30.12R
$$

COZ017>023-064>068-011700-
...SOUTHWEST COLORADO...

CITY           SKY/WX    TMP DP  RH WIND       PRES   REMARKS
DURANGO        SNOW      32  31  96 CALM      30.10R VSB 1/2
CORTEZ         LGT SNOW  34  33  96 NE5       30.09R FOG     WCI  30
PAGOSA SPRINGS LGT SNOW  33  33  99 CALM      30.11R
TELLURIDE      LGT SNOW  27  25  94 CALM      30.10S
WOLF CREEK PAS SNOW      18  18 100 SW10      30.12R VSB 1/4 WCI   6
$$

COZ009-010-012-014-032>034-037-058>063-011700-
...CENTRAL COLORADO...

CITY           SKY/WX    TMP DP  RH WIND       PRES   REMARKS
ASPEN          CLOUDY    27  23  85 S6        30.05R WCI  20
BUENA VISTA    CLOUDY    24  19  78 CALM      30.09R
COPPER MTN     LGT SNOW  19  10  68 S12G22    30.04R WCI   7
BERTHOUD PASS  LGT SNOW  10   3  72 W23G31    30.01S WCI -10
COTTONWOOD PAS PTSUNNY   28  23  80 CALM      30.06R
GUNNISON       PTSUNNY   19  16  86 CALM      30.15R
KREMMLING      CLOUDY    28  23  80 CALM      30.09R
LEADVILLE      CLOUDY    17  14  88 S6        30.05R WCI   9
SALIDA         CLOUDY    29  21  70 N3        30.16R
SUNLIGHT       LGT SNOW  23  19  86 CALM        N/A
WILKERSON PASS MOSUNNY   18  16  93 SW5       30.07R WCI  11
$$

COZ069>075-011700-
...SAN LUIS VALLEY/SANGRE DE CRISTO MOUNTAINS...

CITY           SKY/WX    TMP DP  RH WIND       PRES   REMARKS
ALAMOSA        CLOUDY    27  22  81 N3        30.13R
LA VETA PASS   PTSUNNY   28  23  80 S6G22     30.10R WCI  22
SAGUACHE       CLOUDY    27  19  74 NW7       30.14R WCI  19
$$

COZ035-036-038>040-011700-
...NORTHERN COLORADO FRONT RANGE...

CITY           SKY/WX    TMP DP  RH WIND       PRES   REMARKS
DENVER INTL AP FOG       15  14  95 SW5       30.20R VSB 1/4 WCI   8
DMNS CITY PARK   N/A     29  16  58 S1        30.20R
AURORA         PTSUNNY   19  13  79 CALM      30.19R FOG
FRONT RANGE AP CLOUDY    18  16  93 SW6       30.20R FOG     WCI   9
ERIE MUNI ARPT PTSUNNY   21  18  88 N3        30.21R
BOULDER MUN AP LGT SNOW  21  19  93 CALM      30.19S
CENTENNIAL     PTSUNNY   17  15  92 E3        30.17R FOG
BROOMFIELD     FLURRIES  21  16  79 N3        30.18R
FORT COLLINS   MOSUNNY   19  16  86 N3        30.23R
LONGMONT       LGT SNOW  26  21  80 CALM      30.23R
$$

COZ041-046-047-076>085-087-088-011700-
...PIKES PEAK/PALMER DIVIDE AND SOUTHERN FOOTHILLS...

CITY           SKY/WX    TMP DP  RH WIND       PRES   REMARKS
COLO. SPRINGS  MOSUNNY   15  11  83 E5        30.14R FOG     WCI   8
A. F. ACADEMY  SUNNY     19  10  70 N10       30.11R WCI   7
ELLICOTT       NOT AVBL
FALCON         PTSUNNY   19  13  76 CALM      30.11R
FORT CARSON    SUNNY     20  13  75 S2        30.14R
LIMON          CLOUDY    18  13  80 N8        30.18R WCI   8
MONUMENT HILL  LGT SNOW  18  14  86 NW6       30.10R WCI   9
TRINIDAD       CLOUDY    17  16  95 CALM      30.17R FOG
$$

COZ042>045-048>051-090-091-011700-
...NORTHEAST COLORADO...

CITY           SKY/WX    TMP DP  RH WIND       PRES   REMARKS
GREELEY ARPT   MOSUNNY   21  12  68 NE6       30.23R WCI  14
AKRON          SUNNY     22  14  71 NE9       30.22R WCI  12
BURLINGTON     CLOUDY    23  15  71 N12       30.23R WCI  12
WRAY           SUNNY     27  17  66 N7        30.28R WCI  19
STERLING       SUNNY     25  21  86 NE6       30.25S WCI  18
HOLYOKE        NOT AVBL
FORT MORGAN    SUNNY     22  17  80 CALM      30.25R
$$

COZ086-089-092>099-011700-
...SOUTHEAST COLORADO...

CITY           SKY/WX    TMP DP  RH WIND       PRES   REMARKS
PUEBLO         MOSUNNY   20  14  77 W6        30.20R WCI  12
LA JUNTA       MOSUNNY   22  15  75 NW7       30.24R WCI  13
LAMAR          MOSUNNY   23  19  85 NW5       30.25R WCI  17
SPRINGFIELD      N/A     23  17  78 N9        30.21R WCI  13
$$



USA.gov is the U.S. government's official web portal to all federal, state and local government web resources and services.